Погода в Емильчино

Украина / Житомирская область     50°52′18″N   27°48′06″E
темп.,
°C
ветер,
м/с
пор.,
м/с
влажн.,
%
обл.,
%
осадки,
мм/ч
давл.,
гПа
погр.,
м
14 мая, пт
пт1400:00+9ююв6128798 0.0 1007466
03:00+9ююв51190100 0.0 1006394
06:00+10ююв5108670 0.0 1005382
09:00+12ююв467953 0.0 1005445
12:00+18ююв566570 0.0 10051210
15:00+16ююв6879100 1.6 1005790
18:00+14ю5989100 1.7 1005457
21:00+12ююз3695100 3.9 1005138
15 мая, сб
сб1500:00+12ююз3697100 2.2 1006214
03:00+11юз4796100 2.4 1007270
06:00+10юз4894100 0.2 1007279
09:00+12юз468594 0.2 1009548
12:00+12юз5689100 0.1 1009603
15:00+13зюз7990100 0.5 1010594
18:00+12зюз4789100 0.1 1011455
21:00+12юз359074 0.1 1011149
16 мая, вс
вс1600:00+9юз34955 0.0 101266
03:00+8юз22954 0.0 101231
06:00+8ююв22915 0.0 101213
09:00+14юв357740 0.0 1012338
12:00+19юв57610 0.0 10111024
15:00+20ююв7865100 1.0 10091343
18:00+19ююв48715 1.3 10081128
21:00+14юв4118614 1.7 1008199
17 мая, пн
пн1700:00+13юв4109138 0.5 1007175
03:00+12ю2293100 1.1 100731
06:00+12зсз369848 0.2 1007205
09:00+13зсз4591100 0.2 1008454
12:00+15зсз3584100 0.3 1007646
15:00+16сз447356 0.6 1007974
18:00+15зсз467640 0.1 1007309
21:00+12зюз11820 0.1 100710
18 мая, вт
вт1800:00+11юз11853 0.0 100810
03:00+10юз22876 0.0 100810
06:00+9зюз1186100 0.0 100811
09:00+13зюз2277100 0.0 1008189
12:00+13зсз2282100 0.5 1008289
15:00+12сз2389100 0.8 1008182
18:00+11ссз3492100 0.3 1008187
21:00+10сз3797100 0.7 1008262